Regional Weather Roundup
Issued by NWS

Home | Current Version | Previous Version | Graphics & Text | Print | Product List | Glossary On
Versions: 1 2 3 4 5 6 7 8 9 10 11 12 13 14 15 16 17 18 19 20 21 22 23 24 25 26 27 28 29 30 31 32 33 34 35 36 37 38 39 40 41 42 43 44 45 46 47 48 49 50
000
ASUS43 KFSD 091602
RWRSD

WEATHER ROUNDUP FOR SOUTH DAKOTA
NATIONAL WEATHER SERVICE SIOUX FALLS SD
1000 AM CST TUE FEB 09 2016

NOTE: "FAIR" INDICATES FEW OR NO CLOUDS BELOW 12,000 FEET WITH NO
SIGNIFICANT WEATHER AND/OR OBSTRUCTIONS TO VISIBILITY.


SDZ001>005-009-010-012>017-091700-
NORTHWEST AND NORTH CENTRAL SOUTH DAKOTA

CITY           SKY/WX    TMP DP  RH WIND       PRES   REMARKS
BUFFALO          N/A     40  29  64 NW20      30.13R
FAITH            N/A     24  16  71 S15       30.22R WCI  11
MOBRIDGE       CLOUDY    26  10  50 S7        30.23F WCI  18
$$

SDZ012>016-024>037-041>051-057-063-072>074-091700-
SOUTHWEST AND SOUTH CENTRAL SOUTH DAKOTA

CITY           SKY/WX    TMP DP  RH WIND       PRES   REMARKS
RAPID CTY ARPT CLOUDY    33  23  66 SE3       30.18F
PIERRE         CLOUDY    24   7  48 S3        30.29S
CUSTER         SUNNY     40  22  48 NW10G20   30.18R
ELLSWORTH AFB  CLOUDY    43  30  59 NW18      30.17F
PHILIP         CLOUDY    25  17  72 E12       30.26F WCI  14
PINE RIDGE     CLOUDY    33  25  72 W6        30.22R WCI  28
WINNER         CLOUDY    24   7  48 NW3       30.30R
$$

SDZ004>011-016>023-039-040-091700-
NORTHEAST SOUTH DAKOTA

CITY           SKY/WX    TMP DP  RH WIND       PRES   REMARKS
ABERDEEN       MOSUNNY   20  10  65 NW8       30.29R WCI  10
WATERTOWN      CLOUDY    12   3  67 N10       30.22R WCI  -1
BROOKINGS      CLOUDY     9   2  73 N16       30.22R WCI  -8
SISSETON         N/A     14   7  73 N13       30.25F WCI   0
$$

SDZ017-020-022-023-036>040-048>070-091700-
SOUTHEAST SOUTH DAKOTA

CITY           SKY/WX    TMP DP  RH WIND       PRES   REMARKS
SIOUX FALLS    MOSUNNY   11   1  64 NW13      30.24S WCI  -4
HURON          MOSUNNY   17   7  64 N12       30.30R WCI   4
MITCHELL       SUNNY     20  11  68 N10       30.31S WCI   9
YANKTON        SUNNY     16   5  62 N15G21    30.30S WCI   1
$$

ABBREVIATIONS USED IN REMARKS
   TC - TEMPERATURE IN CELSIUS
  WCI - WIND CHILL INDEX
   HX - HEAT INDEX
  VSB - VISIBILITY




USA.gov is the U.S. government's official web portal to all federal, state and local government web resources and services.